Location: Newark
(2.6153°S, 29.9989°E)
Time: 17:00:19
(UTC+00:00)

N. Korean satellite - Pass Details

Date: 26 August 2019
Orbit: 455 x 509 km, 97.2° (Epoch: 21 September)

Event Time Altitude Azimuth Distance (km) Brightness Sun altitude
Rises 03:12:10 0° 25° (NNE) 2,481 10.7 -12.7°
Reaches altitude 10° 03:14:19 10° 34° (NE) 1,603 9.8 -12.2°
Maximum altitude 03:17:29 35° 101° (E) 761 8.2 -11.4°
Drops below altitude 10° 03:20:37 10° 168° (SSE) 1,597 9.2 -10.6°
Sets 03:22:46 0° 177° (S) 2,470 10.1 -10.1°
